CW2323 Weather Reports


Display with metric or nautical units.
time (UTC)temp
F
wind
direction
speed
MPH
gust
MPH
rain 1hr
in
rain 24hr
in
rain mn
in
humidity
%
barometer
mb
20260905224229 93 355 1.0 4.0 0.00 0.00 0.00 14 1008.3
20260905223236 91 15 3.0 7.0 0.00 0.00 0.00 16 1008.3
20260905222241 91 5 5.0 9.0 0.00 0.00 0.00 15 1008.4
20260905221229 91 71 3.0 9.0 0.00 0.00 0.00 16 1008.4
20260905220238 92 12 5.0 9.0 0.00 0.00 0.00 14 1008.4
20260905215225 91 323 4.0 13.0 0.00 0.00 0.00 15 1008.7
20260905214228 90 17 7.0 11.0 0.00 0.00 0.00 15 1008.7
20260905213223 90 294 4.0 11.0 0.00 0.00 0.00 16 1008.7
20260905212230 91 360 7.0 12.0 0.00 0.00 0.00 15 1008.8
20260905211239 92 27 8.0 12.0 0.00 0.00 0.00 15 1009.0
20260905210231 92 51 7.0 12.0 0.00 0.00 0.00 15 1009.0
20260905205241 93 336 6.0 13.0 0.00 0.00 0.00 15 1009.2
20260905204223 92 40 2.0 8.0 0.00 0.00 0.00 15 1009.4
20260905203244 93 46 6.0 13.0 0.00 0.00 0.00 14 1009.4
20260905202229 91 30 8.0 15.0 0.00 0.00 0.00 17 1009.5
20260905201236 91 21 6.0 14.0 0.00 0.00 0.00 16 1009.7
20260905200226 91 25 5.0 14.0 0.00 0.00 0.00 16 1009.7
20260905195235 91 83 4.0 10.0 0.00 0.00 0.00 16 1009.9
20260905194246 90 36 6.0 14.0 0.00 0.00 0.00 17 1009.9
20260905193246 91 5 7.0 16.0 0.00 0.00 0.00 16 1009.9
20260905192229 91 86 5.0 13.0 0.00 0.00 0.00 16 1010.0
20260905191235 91 83 6.0 12.0 0.00 0.00 0.00 17 1010.1
20260905190223 90 90 6.0 13.0 0.00 0.00 0.00 17 1010.1
20260905185226 89 53 3.0 10.0 0.00 0.00 0.00 18 1010.3
20260905184234 89 42 8.0 11.0 0.00 0.00 0.00 18 1010.4
20260905183303 89 61 6.0 13.0 0.00 0.00 0.00 19 1010.4
20260905182246 89 40 5.0 9.0 0.00 0.00 0.00 18 1010.6
20260905181251 88 80 5.0 12.0 0.00 0.00 0.00 19 1010.7
20260905180238 88 87 4.0 11.0 0.00 0.00 0.00 19 1010.7
20260905175223 88 56 7.0 13.0 0.00 0.00 0.00 19 1010.8
20260905174251 88 37 6.0 11.0 0.00 0.00 0.00 18 1010.8
20260905173239 87 38 1.0 9.0 0.00 0.00 0.00 19 1010.8
20260905172219 86 13 3.0 9.0 0.00 0.00 0.00 19 1010.9
20260905171236 87 9 6.0 10.0 0.00 0.00 0.00 20 1010.6
20260905170240 86 16 1.0 7.0 0.00 0.00 0.00 20 1010.6
20260905165224 86 360 3.0 6.0 0.00 0.00 0.00 19 1010.6
20260905164223 86 284 1.0 6.0 0.00 0.00 0.00 20 1010.6
20260905163227 86 280 2.0 7.0 0.00 0.00 0.00 19 1010.6
20260905162233 85 275 3.0 8.0 0.00 0.00 0.00 19 1010.6
20260905161231 84 276 2.0 5.0 0.00 0.00 0.00 20 1010.6
20260905160259 83 268 3.0 6.0 0.00 0.00 0.00 22 1010.6
20260905155242 82 278 3.0 4.0 0.00 0.00 0.00 22 1010.6
20260905154223 80 279 0.0 5.0 0.00 0.00 0.00 23 1010.6
20260905153225 79 278 3.0 6.0 0.00 0.00 0.00 23 1010.6
20260905152231 78 240 0.0 3.0 0.00 0.00 0.00 25 1010.6
20260905151231 77 240 2.0 4.0 0.00 0.00 0.00 28 1010.6
20260905150238 76 239 2.0 6.0 0.00 0.00 0.00 26 1010.6
20260905145224 75 236 3.0 6.0 0.00 0.00 0.00 27 1010.7
20260905144227 74 242 3.0 6.0 0.00 0.00 0.00 28 1010.7
20260905143243 73 228 2.0 6.0 0.00 0.00 0.00 32 1010.7
20260905142227 72 360 3.0 5.0 0.00 0.00 0.00 35 1010.6
20260905141230 71 227 2.0 6.0 0.00 0.00 0.00 36 1010.6
20260905140258 69 221 3.0 7.0 0.00 0.00 0.00 38 1010.6
20260905135224 68 209 3.0 6.0 0.00 0.00 0.00 40 1010.5
20260905134232 67 360 2.0 5.0 0.00 0.00 0.00 41 1010.3
20260905133233 66 360 3.0 5.0 0.00 0.00 0.00 43 1010.3
20260905132239 66 185 5.0 7.0 0.00 0.00 0.00 44 1010.3
20260905131230 65 189 4.0 5.0 0.00 0.00 0.00 44 1010.0
20260905130247 65 189 4.0 7.0 0.00 0.00 0.00 45 1010.0
20260905125228 65 202 4.0 7.0 0.00 0.00 0.00 44 1009.9
20260905124235 66 203 5.0 11.0 0.00 0.00 0.00 44 1009.7
20260905123239 66 219 6.0 9.0 0.00 0.00 0.00 43 1009.7
20260905122227 66 194 5.0 12.0 0.00 0.00 0.00 43 1009.4
20260905121249 65 205 7.0 11.0 0.00 0.00 0.00 43 1009.4
20260905120231 65 207 7.0 10.0 0.00 0.00 0.00 43 1009.4
20260905115237 65 180 7.0 11.0 0.00 0.00 0.00 44 1009.3
20260905114250 65 185 7.0 10.0 0.00 0.00 0.00 46 1009.4
20260905113230 65 205 0.0 5.0 0.00 0.00 0.00 53 1009.4
20260905112232 65 204 3.0 7.0 0.00 0.00 0.00 48 1009.3
20260905111253 65 191 5.0 7.0 0.00 0.00 0.00 49 1009.3
20260905110236 65 177 3.0 7.0 0.00 0.00 0.00 50 1009.3
20260905105235 65 163 4.0 7.0 0.00 0.00 0.00 48 1009.0
20260905104226 64 143 4.0 5.0 0.00 0.00 0.00 50 1009.2
20260905103231 64 142 3.0 5.0 0.00 0.00 0.00 51 1009.2
20260905102235 66 141 2.0 4.0 0.00 0.00 0.00 49 1009.0
20260905101241 66 140 2.0 5.0 0.00 0.00 0.00 47 1009.2
20260905100231 66 140 1.0 3.0 0.00 0.00 0.00 47 1009.2
20260905095238 67 140 0.0 0.0 0.00 0.00 0.00 47 1008.9
20260905094240 67 140 1.0 5.0 0.00 0.00 0.00 46 1008.9
20260905093243 67 138 2.0 5.0 0.00 0.00 0.00 46 1008.9
20260905092235 68 143 2.0 4.0 0.00 0.00 0.00 47 1008.7
20260905091241 68 145 3.0 7.0 0.00 0.00 0.00 45 1008.7
20260905090230 68 154 5.0 8.0 0.00 0.00 0.00 46 1008.7
20260905085258 68 159 5.0 7.0 0.00 0.00 0.00 46 1008.8
20260905084241 68 162 5.0 8.0 0.00 0.00 0.00 46 1008.9
20260905083249 67 179 5.0 7.0 0.00 0.00 0.00 47 1008.9
20260905082232 68 160 4.0 8.0 0.00 0.00 0.00 47 1008.8
20260905081235 68 159 5.0 7.0 0.00 0.00 0.00 49 1008.9
20260905080239 68 163 4.0 7.0 0.00 0.00 0.00 49 1008.9
20260905075246 68 165 5.0 7.0 0.00 0.00 0.00 49 1008.8
20260905074304 68 172 4.0 6.0 0.00 0.00 0.00 48 1008.9
20260905073249 69 168 4.0 6.0 0.00 0.00 0.00 46 1008.9
20260905072235 69 169 4.0 6.0 0.00 0.00 0.00 46 1009.0
20260905071232 70 169 5.0 9.0 0.00 0.00 0.00 45 1009.0
20260905070243 71 166 4.0 9.0 0.00 0.00 0.00 43 1009.0
20260905065225 70 174 4.0 7.0 0.00 0.00 0.00 45 1009.0
20260905064230 70 174 3.0 6.0 0.00 0.00 0.00 42 1008.9
20260905063229 71 169 3.0 7.0 0.00 0.00 0.00 39 1008.9
20260905062235 71 173 5.0 7.0 0.00 0.00 0.00 38 1008.8
20260905061236 72 169 4.0 8.0 0.00 0.00 0.00 35 1008.7
20260905060235 72 184 6.0 8.0 0.00 0.00 0.00 35 1008.7
20260905055244 73 168 7.0 10.0 0.00 0.00 0.00 34 1008.7
20260905054231 73 171 7.0 10.0 0.00 0.00 0.00 33 1008.6
20260905053233 74 172 7.0 10.0 0.00 0.00 0.00 32 1008.6
20260905052241 74 178 7.0 12.0 0.00 0.00 0.00 32 1008.6
20260905051232 73 209 7.0 11.0 0.00 0.00 0.00 33 1008.6
20260905050241 73 209 2.0 6.0 0.00 0.00 0.00 34 1008.6
20260905045225 74 171 1.0 11.0 0.00 0.00 0.00 32 1008.6
20260905044239 75 154 6.0 12.0 0.00 0.00 0.00 31 1008.5
20260905043301 75 360 7.0 14.0 0.00 0.00 0.00 31 1008.5
20260905042240 76 360 8.0 16.0 0.00 0.00 0.00 31 1008.4
20260905041242 77 360 9.0 16.0 0.00 0.00 0.00 30 1008.3
20260905040235 76 360 9.0 15.0 0.00 0.00 0.00 30 1008.3
20260905035240 76 360 7.0 12.0 0.00 0.00 0.00 30 1008.2
20260905034247 77 150 9.0 13.0 0.00 0.00 0.00 30 1008.2
20260905033235 77 140 7.0 14.0 0.00 0.00 0.00 29 1008.2
20260905032239 77 360 7.0 15.0 0.00 0.00 0.00 29 1008.1
20260905031259 77 360 7.0 16.0 0.00 0.00 0.00 29 1008.1
20260905030247 77 167 8.0 14.0 0.00 0.00 0.00 29 1008.1
20260905025232 77 360 5.0 11.0 0.00 0.00 0.00 28 1007.8
20260905024233 77 119 5.0 13.0 0.00 0.00 0.00 27 1007.6
20260905023241 78 360 4.0 12.0 0.00 0.00 0.00 28 1007.6
20260905022229 78 158 5.0 12.0 0.00 0.00 0.00 28 1007.5
20260905021229 79 360 7.0 12.0 0.00 0.00 0.00 27 1007.4
20260905020234 79 360 5.0 13.0 0.00 0.00 0.00 26 1007.4
20260905015239 80 142 7.0 16.0 0.00 0.00 0.00 25 1007.4
20260905014231 81 157 8.0 15.0 0.00 0.00 0.00 23 1007.1
20260905013232 82 147 3.0 7.0 0.00 0.00 0.00 22 1007.1
20260905012233 83 200 1.0 10.0 0.00 0.00 0.00 23 1007.0
20260905011241 83 155 4.0 12.0 0.00 0.00 0.00 21 1006.8
20260905010240 84 152 4.0 7.0 0.00 0.00 0.00 21 1006.8
20260905005245 85 140 3.0 7.0 0.00 0.00 0.00 20 1006.8
20260905004232 86 138 5.0 9.0 0.00 0.00 0.00 20 1006.8
20260905003234 87 87 4.0 9.0 0.00 0.00 0.00 19 1006.8
20260905002240 88 132 4.0 8.0 0.00 0.00 0.00 18 1006.6
20260905001243 90 104 5.0 10.0 0.00 0.00 0.00 17 1006.5
20260905000245 91 112 4.0 12.0 0.00 0.00 0.00 16 1006.5
20260904235253 91 99 7.0 13.0 0.00 0.00 0.00 16 1006.4
20260904234235 91 81 6.0 12.0 0.00 0.00 0.00 17 1006.4
20260904233244 91 72 6.0 15.0 0.00 0.00 0.00 17 1006.4
20260904232307 91 61 6.0 16.0 0.00 0.00 0.00 17 1006.4
20260904231233 91 78 7.0 18.0 0.00 0.00 0.00 16 1006.4
20260904230241 91 89 9.0 18.0 0.00 0.00 0.00 17 1006.4
20260904225257 92 78 9.0 16.0 0.00 0.00 0.00 16 1006.5